Location: Osnabrueck
(52.2800°N, 7.9700°E)
Time: 08:06:45
(UTC+02:00)

Envisat - Pass Details

Date: 02 September 2019
Orbit: 764 x 766 km, 98.1° (Epoch: 19 September)

Event Time Altitude Azimuth Distance (km) Brightness Sun altitude
Rises 20:53:15 0° 209° (SSW) 3,223 6.3 -6.5°
Reaches altitude 10° 20:56:12 10° 227° (SW) 2,302 5.8 -6.9°
Maximum altitude 20:59:46 19° 272° (W) 1,771 6.0 -7.4°
Drops below altitude 10° 21:03:20 10° 317° (NW) 2,314 6.8 -7.9°
Sets 21:06:20 0° 335° (NNW) 3,246 7.1 -8.3°
